Home   Weather   Boise   Past weeks
Flag for USA

Past Weather in Boise, Idaho, USA — Yesterday and Last 2 Weeks

Now
48 °F

Clear.


Feels Like: 44 °F
Forecast: 56 / 32 °F
Wind: 8 mph from Northwest

Location: Boise Air Terminal

Current Time: Oct 23, 2019 at 10:28:18 pm

Latest Report: Oct 23, 2019 at 8:53 pm


Visibility: 10 mi

Pressure: 30.38 "Hg (27.50 "Hg at 822m altitude)

Humidity: 43%

Dew Point: 26 °F

Location of BoiseLocation

Past Weather in Boise — Graph

°F

Boise Temperature Yesterday

Maximum temperature yesterday: 64 °F (at 4:53 pm)
Minimum temperature yesterday: 45 °F (at 3:53 am)
Average temperature yesterday: 52 °F

High & Low Weather Summary for the Past Weeks

 TemperatureHumidityPressure
High79 °F (Oct 16, 3:53 pm)100% (Oct 19, 12:35 pm)30.50 "Hg (Oct 19, 12:35 pm)
Low24 °F (Oct 10, 7:53 am)9% (Oct 16, 1:53 pm)29.58 "Hg (Oct 17, 2:53 am)
Average48 °F48%30.08 "Hg
* Reported Oct 8 8:53 pm — Oct 23 8:53 pm, Boise. Weather by CustomWeather, © 2019

Note: Actual official high and low records may vary slightly from our data, if they occured in-between our weather recording intervals... More about our weather records

Advertising

Boise Weather History for the Previous 24 Hours

Scroll right to see more
 ConditionsComfort  
Time TempWeatherWind HumidityBarometerVisibility
8:53 pm
Wed, Oct 23
48 °FClear.8 mph43%30.38 "Hg10 mi
7:53 pm50 °FClear.7 mph41%30.36 "Hg10 mi
6:53 pm53 °FSunny.13 mph35%30.35 "Hg10 mi
5:53 pm57 °FSunny.17 mph29%30.34 "Hg10 mi
4:53 pm58 °FSunny.15 mph27%30.33 "Hg10 mi
3:53 pm58 °FSunny.21 mph27%30.32 "Hg10 mi
2:53 pm59 °FSunny.17 mph26%30.32 "Hg10 mi
1:53 pm57 °FSunny.16 mph34%30.34 "Hg10 mi
12:53 pm55 °FSunny.15 mph40%30.35 "Hg10 mi
11:53 am53 °FSunny.16 mph43%30.36 "Hg10 mi
10:53 am50 °FSunny.13 mph50%30.35 "Hg10 mi
9:53 am47 °FSunny.17 mph56%30.34 "Hg10 mi
8:53 am44 °FClear.15 mph65%30.32 "Hg10 mi
7:53 am43 °FClear.12 mph62%30.29 "Hg10 mi
6:53 am45 °FClear.14 mph58%30.26 "Hg10 mi
5:53 am45 °FClear.14 mph63%30.24 "Hg10 mi
4:53 am47 °FClear.15 mph66%30.22 "Hg10 mi
3:53 am46 °FClear.9 mph79%30.23 "Hg10 mi
2:53 am48 °FClear.8 mph83%30.23 "Hg10 mi
1:53 am48 °FClear.No wind83%30.22 "Hg10 mi
12:53 am49 °FClear.5 mph80%30.22 "Hg10 mi
11:53 pm
Tue, Oct 22
50 °FClear.No wind80%30.21 "Hg10 mi
10:53 pm51 °FClear.5 mph77%30.20 "Hg10 mi
Weather by CustomWeather, © 2019

See weather overview